Regional Weather Roundup
Issued by NWS Green Bay, WI

Home | Current Version | Previous Version | Graphics & Text | Print | Product List | Glossary Off
Versions: 1 2 3 4 5 6 7 8 9 10 11 12 13 14 15 16 17 18 19 20 21 22 23 24 25 26 27 28 29 30 31 32 33 34 35 36 37 38 39 40 41 42 43 44 45 46 47 48 49 50

000
ASUS43 KGRB 040811
RWRGRB

NORTH-CENTRAL AND NORTHEAST WISCONSIN REGIONAL WEATHER ROUNDUP
NATIONAL WEATHER SERVICE GREEN BAY WI
300 AM CDT WED MAY 04 2016

WIZ005-009-010>012-018-019-040900-
NORTH CENTRAL WISCONSIN

CITY           SKY/WX    TMP DP  RH WIND       PRES   REMARKS
IRONWOOD         N/A     45  34  65 N10       29.81S
MANITOWISH WTR CLOUDY    41  36  81 N12       29.80F
ARBOR VITAE    CLOUDY    42  37  83 N7        29.79F
EAGLE RIVER    CLOUDY    39  33  78 N8        29.78S
LAND O LAKES   CLOUDY    40  35  81 N10       29.79S
RHINELANDER    MOCLDY    40  34  79 N6        29.79S
PHILLIPS       MOCLDY    40  35  80 N5        29.81S
ANTIGO         PTCLDY    38  35  88 N12G17    29.76S
TOMAHAWK       PTCLDY    37  34  92 CALM      29.80F
MERRILL        PTCLDY    39  38  99 N5        29.80R
$$

WIZ013-073-040900-
NORTHEAST WISCONSIN

CITY           SKY/WX    TMP DP  RH WIND       PRES   REMARKS
IRON MOUNTAIN  CLOUDY    41  35  79 NW9       29.73S
MARINETTE        N/A     41  36  82 N8        29.73S
OCONTO         CLEAR     41  40  95 N10G20    29.73R
$$

WIZ017-030-035>037-045-040900-
CENTRAL WISCONSIN

CITY           SKY/WX    TMP DP  RH WIND       PRES   REMARKS
MEDFORD        CLEAR     39  37  89 N9        29.80S
WAUSAU         CLOUDY    44  38  79 N10       29.77R
MOSINEE        MOCLDY    41  39  93 N10       29.78R
MARSHFIELD     CLOUDY    45  38  76 N10G22    29.78R
WISC RAPIDS    CLEAR     43  39  86 N13G24    29.78R
STEVENS POINT  MOCLDY    40  39  93 N9        29.77R
WAUPACA        CLEAR     45  42  88 NW7       29.74R
SHAWANO        PTCLDY    44  39  81 N13       29.74R
CLINTONVILLE   CLEAR     43  39  87 N6        29.74R
WAUTOMA        CLEAR     45  41  86 N9        29.74R
$$

WIZ038-039-048-051-040900-
FOX VALLEY

CITY           SKY/WX    TMP DP  RH WIND       PRES   REMARKS
NWS GREEN BAY  LGT RAIN  45  40  82 N10       29.71S
APPLETON       PTCLDY    43  41  93 N15       29.70R
OSHKOSH        MOCLDY    46  42  86 N16       29.70R
FOND DU LAC    PTCLDY    47  43  86 NE14      29.70R
$$

WIZ022-050-052-040900-
EAST CENTRAL WISCONSIN

CITY           SKY/WX    TMP DP  RH WIND       PRES   REMARKS
EPHRAIM        CLOUDY    40  37  88 N13G23    29.69S
STURGEON BAY   PTCLDY    43  36  75 N15G24    29.72S
MANITOWOC      CLOUDY    44  41  89 N9G20     29.68S
SHEBOYGAN      PTCLDY    46  41  82 N13G18    29.67R
$$

LMZ563-521-522-541>543-040900-
LAKESHORE

STATION/POSITION TIME  TEMP    WIND        PRES    VSBY  WAVE
                       AIR SEA DIR/SP/G                  HT/PER
                 (UTC) (F)     (DEG/KT/KT) (MB)    (MI)  (FT/S)
SHEBOYGAN LKSHOR 0800   44      10/ 17/ 18 1005.0R
KEWAUNEE LKSHORE 0700   45     360/  8/ 14 1004.8R
ALGOMA MARINA    0715          360/ 18/ 23   N/A
NORTHPORT PIER   0700   41     320/ 17/ 20 1005.8S
N MID LAKE BUOY  0750   40 38  320/ 16/ 17 1004.3S         3/ 4
CHAMBERS ISLAND  0700   43     330/ 16/ 21 1006.4S
MENOMINEE LKSHOR 0700   44     340/ 19/ 23 1005.2R
$$



USA.gov is the U.S. government's official web portal to all federal, state and local government web resources and services.